EW0608 Weather Reports


Display with metric or nautical units.
time (UTC)temp
F
wind
direction
speed
MPH
gust
MPH
rain 1hr
in
rain 24hr
in
rain mn
in
humidity
%
barometer
mb
20260905164553 70 229 0.0 0.0 0.00 0.00 0.00 94 1011.4
20260905163051 70 229 0.0 0.0 0.00 0.00 0.00 94 1011.6
20260905161551 70 229 0.0 0.0 0.00 0.00 0.00 95 1011.8
20260905160055 70 226 0.0 0.0 0.00 0.00 0.00 95 1011.8
20260905154551 71 226 0.0 0.0 0.00 0.00 0.00 95 1011.9
20260905153104 70 226 0.0 0.0 0.00 0.00 0.00 95 1012.0
20260905151548 70 227 0.0 0.0 0.00 0.00 0.00 95 1012.1
20260905150049 69 227 0.0 0.0 0.00 0.00 0.00 95 1012.3
20260905144544 69 226 0.0 0.0 0.00 0.00 0.00 95 1012.4
20260905143843 69 226 0.0 0.0 0.00 0.00 0.00 95 1013.4
20260905143337 69 227 0.0 0.0 0.00 0.00 0.00 95 1013.3
20260905143049 69 226 0.0 0.0 0.00 0.00 0.00 95 1012.3
20260905142849 69 227 0.0 0.0 0.00 0.00 0.00 95 1013.3
20260905142341 69 227 0.0 0.0 0.00 0.00 0.00 95 1013.3
20260905141914 69 226 0.0 1.0 0.00 0.00 0.00 95 1013.4
20260905141557 68 226 0.0 1.0 0.00 0.00 0.00 95 1012.3
20260905141346 69 226 0.0 1.0 0.00 0.00 0.00 95 1013.3
20260905140839 69 227 0.0 0.0 0.00 0.00 0.00 95 1013.4
20260905140413 69 227 0.0 0.0 0.00 0.00 0.00 95 1013.4
20260905140042 68 226 0.0 0.0 0.00 0.00 0.00 95 1012.4
20260905135840 69 226 0.0 0.0 0.00 0.00 0.00 95 1013.4
20260905135354 69 227 0.0 0.0 0.00 0.00 0.00 95 1013.3
20260905134846 69 227 0.0 0.0 0.00 0.00 0.00 95 1013.3
20260905134540 68 227 0.0 0.0 0.00 0.00 0.00 95 1012.3
20260905134339 69 227 0.0 0.0 0.00 0.00 0.00 95 1013.3
20260905133851 69 226 0.0 1.0 0.00 0.00 0.00 95 1013.2
20260905133348 69 227 0.0 1.0 0.00 0.00 0.00 95 1013.1
20260905133158 68 226 0.0 0.0 0.00 0.00 0.00 95 1012.0
20260905133058 69 227 0.0 0.0 0.00 0.00 0.00 95 1013.0
20260905131616 68 227 0.0 0.0 0.00 0.00 0.00 95 1011.4
20260905130059 67 227 0.0 0.0 0.00 0.00 0.00 95 1011.5
20260905124559 67 226 0.0 0.0 0.00 0.00 0.00 95 1012.0
20260905123100 66 226 0.0 0.0 0.00 0.00 0.00 95 1011.9
20260905121557 66 226 0.0 0.0 0.00 0.00 0.00 95 1011.7
20260905120056 66 226 0.0 1.0 0.00 0.00 0.00 95 1011.5
20260905114556 66 211 0.0 0.0 0.00 0.00 0.00 95 1011.2
20260905113054 66 211 0.0 0.0 0.00 0.00 0.00 95 1011.3
20260905111556 66 211 0.0 0.0 0.00 0.00 0.00 95 1011.2
20260905110053 65 211 0.0 0.0 0.00 0.00 0.00 95 1011.0
20260905104556 65 211 0.0 0.0 0.00 0.00 0.00 95 1010.8
20260905103054 66 211 0.0 1.0 0.00 0.00 0.00 95 1011.1
20260905101550 66 227 0.0 0.0 0.00 0.00 0.00 95 1010.7
20260905100108 66 227 0.0 0.0 0.00 0.00 0.00 95 1010.6
20260905094550 66 227 0.0 0.0 0.00 0.00 0.00 95 1010.6
20260905093047 66 227 0.0 0.0 0.00 0.00 0.00 95 1010.6
20260905091546 66 227 0.0 0.0 0.00 0.00 0.00 95 1010.5
20260905090103 66 227 0.0 0.0 0.00 0.00 0.00 95 1010.5
20260905084545 67 227 0.0 0.0 0.00 0.00 0.00 95 1010.6
20260905083049 67 227 0.0 0.0 0.00 0.00 0.00 95 1010.6
20260905081547 67 227 0.0 0.0 0.00 0.00 0.00 95 1010.6
20260905080046 67 227 0.0 0.0 0.00 0.00 0.00 95 1010.8
20260905074539 67 227 0.0 0.0 0.00 0.00 0.00 95 1010.8
20260905073038 67 227 0.0 0.0 0.00 0.00 0.00 95 1010.9
20260905071539 67 227 0.0 0.0 0.00 0.00 0.00 95 1011.0
20260905070033 67 227 0.0 0.0 0.00 0.00 0.00 95 1011.3
20260905064532 67 227 0.0 0.0 0.00 0.00 0.00 95 1011.5
20260905063029 68 227 0.0 0.0 0.00 0.00 0.00 95 1011.7
20260905061527 68 227 0.0 0.0 0.00 0.00 0.00 95 1011.9
20260905060032 68 227 0.0 0.0 0.00 0.00 0.00 95 1012.2
20260905054545 68 227 0.0 0.0 0.00 0.00 0.00 95 1012.3
20260905054343 69 227 0.0 0.0 0.00 0.00 0.00 95 1013.4
20260905053916 69 227 0.0 0.0 0.00 0.00 0.00 95 1013.5
20260905053348 69 227 0.0 0.0 0.00 0.00 0.00 95 1013.6
20260905053041 68 227 0.0 0.0 0.00 0.00 0.00 95 1012.5
20260905052839 69 227 0.0 0.0 0.00 0.00 0.00 95 1013.7
20260905052353 69 227 0.0 0.0 0.00 0.00 0.00 95 1013.6
20260905051847 69 227 0.0 0.0 0.00 0.00 0.00 95 1013.5
20260905051542 68 227 0.0 0.0 0.00 0.00 0.00 95 1012.5
20260905051338 69 227 0.0 0.0 0.00 0.00 0.00 95 1013.5
20260905050852 69 227 0.0 0.0 0.00 0.00 0.00 95 1013.8
20260905050346 69 227 0.0 0.0 0.00 0.00 0.00 95 1013.8
20260905050018 68 227 0.0 0.0 0.00 0.00 0.00 95 1012.7
20260905045916 69 227 0.0 0.0 0.00 0.00 0.00 95 1013.9
20260905045346 69 227 0.0 0.0 0.00 0.00 0.00 95 1014.0
20260905044843 69 227 0.0 0.0 0.00 0.00 0.00 95 1014.1
20260905044557 69 227 0.0 0.0 0.00 0.00 0.00 95 1013.0
20260905044356 69 227 0.0 0.0 0.00 0.00 0.00 95 1014.0
20260905043848 69 227 0.0 0.0 0.00 0.00 0.00 95 1014.0
20260905043340 69 227 0.0 0.0 0.00 0.00 0.00 95 1014.0
20260905043053 69 227 0.0 0.0 0.00 0.00 0.00 95 1012.8
20260905042852 69 227 0.0 0.0 0.00 0.00 0.00 95 1014.0
20260905042405 69 227 0.0 0.0 0.00 0.00 0.00 95 1014.1
20260905041836 69 227 0.0 0.0 0.00 0.00 0.00 95 1014.1
20260905041551 69 227 0.0 0.0 0.00 0.00 0.00 95 1012.9
20260905041349 69 227 0.0 0.0 0.00 0.00 0.00 95 1014.0
20260905040840 70 227 0.0 0.0 0.00 0.00 0.00 95 1014.1
20260905040415 70 227 0.0 0.0 0.00 0.00 0.00 95 1014.2
20260905040006 69 227 0.0 0.0 0.00 0.00 0.00 95 1013.0
20260905035902 70 227 0.0 0.0 0.00 0.00 0.00 95 1014.2
20260905035354 70 227 0.0 0.0 0.00 0.00 0.00 95 1014.1
20260905034847 70 227 0.0 0.0 0.00 0.00 0.00 95 1014.1
20260905034542 69 227 0.0 0.0 0.00 0.00 0.00 95 1012.9
20260905034341 70 227 0.0 0.0 0.00 0.00 0.00 95 1014.1
20260905033853 70 227 0.0 0.0 0.00 0.00 0.00 95 1014.0
20260905033406 70 227 0.0 0.0 0.00 0.00 0.00 95 1014.1
20260905033038 69 227 0.0 0.0 0.00 0.00 0.00 95 1012.9
20260905032837 70 227 0.0 0.0 0.00 0.00 0.00 95 1014.0
20260905032349 70 227 0.0 0.0 0.00 0.00 0.00 95 1013.9
20260905031843 70 227 0.0 0.0 0.00 0.00 0.00 95 1014.0
20260905031609 69 227 0.0 0.0 0.00 0.00 0.00 95 1012.9
20260905031355 70 227 0.0 0.0 0.00 0.00 0.00 95 1014.1
20260905030907 70 227 0.0 0.0 0.00 0.00 0.00 95 1013.8
20260905030357 70 227 0.0 0.0 0.00 0.00 0.00 95 1014.0
20260905030048 69 227 0.0 0.0 0.00 0.00 0.00 95 1012.9
20260905025847 70 227 0.0 0.0 0.00 0.00 0.00 95 1013.9
20260905025359 70 227 0.0 0.0 0.00 0.00 0.00 95 1013.8
20260905024913 70 227 0.0 0.0 0.00 0.00 0.00 95 1013.9
20260905024543 70 227 0.0 0.0 0.00 0.00 0.00 95 1012.8
20260905024341 70 227 0.0 0.0 0.00 0.00 0.00 95 1013.9
20260905023855 70 227 0.0 0.0 0.00 0.00 0.00 95 1013.9
20260905023427 70 227 0.0 0.0 0.00 0.00 0.00 95 1013.9
20260905023056 70 227 0.0 0.0 0.00 0.00 0.00 95 1012.7
20260905022855 70 227 0.0 0.0 0.00 0.00 0.00 95 1013.8
20260905022347 70 227 0.0 0.0 0.00 0.00 0.00 95 1013.8
20260905021900 70 227 0.0 0.0 0.00 0.00 0.00 95 1013.5
20260905021556 70 227 0.0 0.0 0.00 0.00 0.00 95 1012.4
20260905021352 70 227 0.0 0.0 0.00 0.00 0.00 95 1013.5
20260905020843 71 227 0.0 0.0 0.00 0.00 0.00 95 1013.5
20260905020358 71 227 0.0 0.0 0.00 0.00 0.00 95 1013.5
20260905020046 70 227 0.0 0.0 0.00 0.00 0.00 95 1012.3
20260905015846 71 227 0.0 0.0 0.00 0.00 0.00 95 1013.4
20260905015338 71 227 0.0 0.0 0.00 0.00 0.00 95 1013.3
20260905014911 71 227 0.0 0.0 0.00 0.00 0.00 95 1013.1
20260905014506 70 227 0.0 0.0 0.00 0.00 0.00 95 1012.0
20260905014403 71 227 0.0 0.0 0.00 0.00 0.00 95 1013.1
20260905013854 71 227 0.0 0.0 0.00 0.00 0.00 95 1013.1
20260905013346 71 227 0.0 0.0 0.00 0.00 0.00 95 1013.2
20260905013103 71 227 0.0 0.0 0.00 0.00 0.00 95 1012.1
20260905012859 71 227 0.0 0.0 0.00 0.00 0.00 95 1013.2
20260905012351 71 227 0.0 0.0 0.00 0.00 0.00 95 1013.2
20260905011844 71 227 0.0 0.0 0.00 0.00 0.00 95 1013.1
20260905011517 71 227 0.0 0.0 0.00 0.00 0.00 95 1011.9
20260905011416 71 227 0.0 0.0 0.00 0.00 0.00 95 1013.1
20260905010907 71 227 0.0 0.0 0.00 0.00 0.00 95 1013.1
20260905010400 71 227 0.0 0.0 0.00 0.00 0.00 95 1013.1
20260905010027 71 227 0.0 0.0 0.00 0.00 0.00 95 1011.8
20260905004835 72 227 0.0 0.0 0.00 0.00 0.00 95 1013.0
20260905004549 71 227 0.0 0.0 0.00 0.00 0.00 95 1011.8
20260905004348 72 227 0.0 0.0 0.00 0.00 0.00 95 1013.0
20260905003842 72 227 327.0 327.0 0.00 0.00 0.00 95 1012.6
20260905003355 72 227 0.0 0.0 0.00 0.00 0.00 95 1012.9
20260905003050 71 227 0.0 0.0 0.00 0.00 0.00 95 1011.8
20260905002848 72 227 0.0 0.0 0.00 0.00 0.00 95 1013.0
20260905002341 72 227 0.0 0.0 0.00 0.00 0.00 95 1012.9
20260905001506 71 227 0.0 0.0 0.00 0.00 0.00 95 1011.7
20260905001403 72 227 0.0 0.0 0.00 0.00 0.00 95 1012.8
20260905000855 72 227 0.0 0.0 0.00 0.00 0.00 94 1012.7
20260905000409 72 227 0.0 0.0 0.00 0.00 0.00 94 1012.7
20260905000050 72 227 0.0 0.0 0.00 0.00 0.00 95 1011.4
20260904235836 72 227 0.0 0.0 0.00 0.00 0.00 95 1012.8
20260904235348 73 227 0.0 0.0 0.00 0.00 0.00 95 1012.7
20260904234841 73 227 0.0 0.0 0.00 0.00 0.00 94 1012.8
20260904234555 72 227 0.0 0.0 0.00 0.00 0.00 94 1011.6
20260904234355 73 227 0.0 0.0 0.00 0.00 0.00 94 1012.8
20260904233847 73 227 0.0 0.0 0.00 0.00 0.00 94 1012.8
20260904233340 73 227 0.0 0.0 0.00 0.00 0.00 95 1012.6
20260904233035 73 227 0.0 0.0 0.00 0.00 0.00 94 1011.4
20260904232934 73 227 0.0 0.0 0.00 0.00 0.00 94 1012.7
20260904232342 73 227 0.0 0.0 0.00 0.00 0.00 94 1012.7
20260904231855 73 227 0.0 0.0 0.00 0.00 0.00 94 1012.8
20260904231551 73 227 0.0 0.0 0.00 0.00 0.00 94 1011.7
20260904231347 73 227 0.0 0.0 0.00 0.00 0.00 94 1012.9
20260904230841 74 227 0.0 0.0 0.00 0.00 0.00 94 1012.8
20260904230355 74 227 0.0 0.0 0.00 0.00 0.00 94 1012.9
20260904230101 73 227 0.0 0.0 0.00 0.00 0.00 94 1011.7
20260904225844 74 227 0.0 0.0 0.00 0.00 0.00 94 1012.9
20260904225357 74 227 0.0 0.0 0.00 0.00 0.00 94 1012.8
20260904224848 74 227 0.0 0.0 0.00 0.00 0.00 94 1013.2
20260904224501 73 227 0.0 0.0 0.00 0.00 0.00 94 1011.7
20260904224340 74 227 0.0 0.0 0.00 0.00 0.00 94 1012.9
20260904223851 74 227 0.0 0.0 0.00 0.00 0.00 94 1013.0
20260904223344 74 227 0.0 0.0 0.00 0.00 0.00 94 1013.2
20260904223105 74 227 0.0 0.0 0.00 0.00 0.00 94 1011.9
20260904222859 74 227 0.0 0.0 0.00 0.00 0.00 94 1013.2
20260904222349 74 227 0.0 0.0 0.00 0.00 0.00 94 1013.4
20260904221902 74 227 0.0 0.0 0.00 0.00 0.00 94 1013.5
20260904221514 74 227 0.0 0.0 0.00 0.00 0.00 94 1012.2
20260904221414 74 227 0.0 0.0 0.00 0.00 0.00 94 1013.4
20260904220846 74 227 0.0 0.0 0.00 0.00 0.00 94 1013.3
20260904220340 74 227 0.0 0.0 0.00 0.00 0.00 94 1013.3
20260904220009 74 227 0.0 0.0 0.00 0.00 0.00 94 1012.0
20260904215909 74 227 0.0 0.0 0.00 0.00 0.00 94 1013.2
20260904215400 74 227 0.0 0.0 0.00 0.00 0.00 94 1013.3
20260904214852 74 227 0.0 0.0 0.00 0.00 0.00 94 1013.2
20260904214547 74 227 0.0 0.0 0.00 0.00 0.00 94 1012.0
20260904214347 74 227 0.0 0.0 0.00 0.00 0.00 93 1013.2
20260904213858 74 227 0.0 0.0 0.00 0.00 0.00 93 1013.2
20260904213410 74 227 0.0 0.0 0.00 0.00 0.00 93 1013.4
20260904213042 73 227 0.0 0.0 0.00 0.00 0.00 93 1012.2
20260904212843 74 227 0.0 0.0 0.00 0.00 0.00 93 1013.4
20260904212354 74 227 0.0 0.0 0.00 0.00 0.00 93 1013.5
20260904211847 74 227 0.0 0.0 0.00 0.00 0.00 93 1013.7
20260904211543 74 227 0.0 0.0 0.00 0.00 0.00 93 1012.5
20260904211339 74 227 0.0 0.0 0.00 0.00 0.00 93 1013.8
20260904210852 74 227 0.0 0.0 0.00 0.00 0.00 93 1013.9
20260904210346 74 227 0.0 0.0 0.00 0.00 0.00 93 1013.9
20260904210025 74 227 0.0 0.0 0.00 0.00 0.00 93 1012.6
20260904205916 74 227 0.0 0.0 0.00 0.00 0.00 93 1013.9
20260904205347 75 227 0.0 0.0 0.00 0.00 0.00 92 1014.1
20260904204840 74 227 0.0 1.0 0.00 0.00 0.00 93 1014.0
20260904204513 74 226 0.0 1.0 0.00 0.00 0.00 93 1012.7
20260904204412 74 223 0.0 1.0 0.00 0.00 0.00 93 1014.0
20260904203341 75 87 0.0 0.0 0.00 0.00 0.00 93 1014.1
20260904203037 74 87 0.0 0.0 0.00 0.00 0.00 94 1012.8
20260904202836 75 87 0.0 0.0 0.00 0.00 0.00 94 1014.1
20260904201840 75 87 0.0 0.0 0.00 0.00 0.00 94 1014.1
20260904201558 74 87 0.0 0.0 0.00 0.00 0.00 93 1012.6
20260904201353 75 87 0.0 0.0 0.00 0.00 0.00 94 1013.8
20260904200905 75 87 0.0 0.0 0.00 0.00 0.00 94 1013.8
20260904200418 74 87 0.0 0.0 0.00 0.00 0.00 93 1013.7
20260904200054 73 87 0.0 0.0 0.00 0.00 0.00 93 1012.3
20260904195845 74 87 0.0 0.0 0.00 0.00 0.00 93 1013.7
20260904195338 74 87 0.0 0.0 0.00 0.00 0.00 93 1013.5
20260904194851 74 87 0.0 0.0 0.00 0.00 0.00 93 1013.6
20260904194548 73 87 0.0 0.0 0.00 0.00 0.00 93 1012.2
20260904194344 74 87 0.0 0.0 0.00 0.00 0.00 93 1013.5
20260904193855 74 87 0.0 0.0 0.00 0.00 0.00 93 1013.5
20260904193407 74 87 0.0 0.0 0.00 0.00 0.00 93 1013.5
20260904193040 73 87 0.0 0.0 0.00 0.00 0.00 93 1012.3
20260904192840 74 87 0.0 0.0 0.00 0.00 0.00 93 1013.6
20260904192352 74 87 0.0 0.0 0.00 0.00 0.00 93 1013.8
20260904191904 74 87 0.0 0.0 0.00 0.00 0.00 93 1013.9
20260904191519 73 87 0.0 0.0 0.00 0.00 0.00 93 1012.4
20260904191415 74 87 0.0 0.0 0.00 0.00 0.00 93 1013.7
20260904190847 74 87 0.0 0.0 0.00 0.00 0.00 93 1013.6
20260904190342 74 87 0.0 0.0 0.00 0.00 0.00 93 1013.7
20260904190012 74 87 0.0 2.0 0.00 0.00 0.00 92 1012.4
20260904185909 75 87 0.0 4.0 0.00 0.00 0.00 91 1013.7
20260904185341 76 87 0.0 6.0 0.00 0.00 0.00 91 1013.9
20260904184853 77 96 3.0 8.0 0.00 0.00 0.00 91 1014.0
20260904184606 77 84 4.0 8.0 0.00 0.00 0.00 91 1012.5
20260904184346 78 79 3.0 7.0 0.00 0.00 0.00 92 1014.0
20260904183838 78 205 0.0 3.0 0.00 0.00 0.00 91 1013.7
20260904183350 79 229 0.0 2.0 0.00 0.00 0.00 90 1013.3
20260904183043 79 229 0.0 0.0 0.00 0.00 0.00 90 1012.0
20260904182843 80 229 0.0 0.0 0.00 0.00 0.00 90 1013.4
20260904182336 81 229 0.0 0.0 0.00 0.00 0.00 87 1013.1
20260904181849 83 229 0.0 0.0 0.00 0.00 0.00 83 1013.1
20260904181539 84 229 0.0 0.0 0.00 0.00 0.00 80 1011.9
20260904181338 86 229 0.0 0.0 0.00 0.00 0.00 76 1013.3
20260904180851 86 229 0.0 0.0 0.00 0.00 0.00 72 1013.4
20260904180343 87 229 0.0 4.0 0.00 0.00 0.00 68 1013.4
20260904180054 87 229 0.0 5.0 0.00 0.00 0.00 66 1012.2
20260904175853 87 229 2.0 6.0 0.00 0.00 0.00 66 1013.5
20260904175406 88 242 3.0 6.0 0.00 0.00 0.00 64 1013.6
20260904174837 89 232 2.0 5.0 0.00 0.00 0.00 65 1013.5
20260904174614 89 146 0.0 2.0 0.00 0.00 0.00 67 1012.2
20260904174352 89 217 0.0 3.0 0.00 0.00 0.00 68 1013.6
20260904173847 88 92 0.0 3.0 0.00 0.00 0.00 69 1013.7
20260904173400 87 175 1.0 3.0 0.00 0.00 0.00 68 1013.7
20260904173052 87 175 0.0 3.0 0.00 0.00 0.00 71 1012.4
20260904172851 87 175 2.0 3.0 0.00 0.00 0.00 69 1013.8
20260904172344 87 200 0.0 3.0 0.00 0.00 0.00 71 1013.9
20260904171916 86 214 1.0 3.0 0.00 0.00 0.00 68 1014.1
20260904171550 86 214 1.0 3.0 0.00 0.00 0.00 67 1012.7
20260904171348 87 214 1.0 3.0 0.00 0.00 0.00 67 1014.1
20260904170841 86 188 0.0 1.0 0.00 0.00 0.00 71 1014.1
20260904170353 86 188 0.0 4.0 0.00 0.00 0.00 70 1014.1
20260904170047 86 188 1.0 4.0 0.00 0.00 0.00 68 1012.8
20260904165840 86 200 2.0 4.0 0.00 0.00 0.00 70 1014.1
20260904165353 86 243 2.0 4.0 0.00 0.00 0.00 68 1014.2